Weather History for CYQZ - October, 2012

Change the Weather History Date:

Friday, October 26, 2012

  Actual Average Record
Temperature  
Mean Temperature 28 °F -  
Max Temperature 33 °F 43 °F - (-1)
Min Temperature 24 °F 28 °F - (-1)
Degree Days  
Heating Degree Days 36    
Moisture  
Dew Point 28 °F    
Average Humidity 93    
Maximum Humidity 100    
Minimum Humidity 75    
Precipitation  
Precipitation 0.00 in - - ()
Sea Level Pressure  
Sea Level Pressure 30.21 in    
Wind  
Wind Speed 3 mph ()    
Max Wind Speed 7 mph    
Max Gust Speed -    
Visibility 5.7 miles    
Events Rain , Snow    
Averages and records for this station are not official NWS values.
T = Trace of Precipitation, MM = Missing Value Source: Averaged Metar Reports

Daily Weather History Graph

Daily Weather History Graph

Search for Another Location

Airport or City:

Trip Planner

Search our weather history database for the weather conditions in past years. The results will help you decide how hot, cold, wet, or windy it might be!

Date:

Astronomy

Oct. 26, 2012 Rise Set
Actual Time 7:57 AM PDT 5:49 PM PDT
Civil Twilight 7:21 AM PDT 6:25 PM PDT
Nautical Twilight 6:41 AM PDT 7:05 PM PDT
Astronomical Twilight 6:01 AM PDT 7:45 PM PDT
Moon 4:23 PM PDT (10/26) 4:39 AM PDT (10/26)
Length of Visible Light 11h 03m
Length of Day
9h 51m
Waxing Gibbous, 91% of the Moon is Illuminated
Oct 26
Waxing Gibbous
Oct 29
Full
Nov 6
Last Quarter
Nov 13
New
Nov 20
First Quarter

Hourly Weather History & Observations

Time (PDT) Temp. Windchill Dew Point Humidity Pressure Visibility Wind Dir Wind Speed Gust Speed Precip Events Conditions
12:00 AM 26.6 °F 22.6 °F 23.0 °F 86% 30.43 in 9.0 mi NNW 3.5 mph - N/A   Partly Cloudy
1:00 AM 26.6 °F 22.6 °F 23.0 °F 86% 30.42 in 9.0 mi North 3.5 mph - N/A   Partly Cloudy
2:00 AM 24.8 °F - 23.0 °F 93% 30.40 in 9.0 mi Calm Calm - N/A   Clear
3:00 AM 26.6 °F 22.6 °F 24.8 °F 93% 30.39 in 9.0 mi North 3.5 mph - N/A   Mostly Cloudy
3:09 AM 24.8 °F 19.1 °F 23.0 °F 93% 30.39 in 9.0 mi North 4.6 mph - N/A   Overcast
3:33 AM 24.8 °F 20.5 °F 23.0 °F 93% 30.38 in 9.0 mi North 3.5 mph - N/A   Mostly Cloudy
3:38 AM 24.8 °F 20.5 °F 23.0 °F 93% 30.38 in 9.0 mi North 3.5 mph - N/A   Mostly Cloudy
4:00 AM 24.8 °F - 24.8 °F 100% 30.37 in 9.0 mi Calm Calm - N/A   Overcast
5:00 AM 26.6 °F - 24.8 °F 93% 30.36 in 9.0 mi Variable 2.3 mph - N/A   Overcast
6:00 AM 26.6 °F - 24.8 °F 93% 30.36 in 9.0 mi Calm Calm - N/A   Overcast
7:00 AM 26.6 °F - 24.8 °F 93% 30.34 in 9.0 mi East 2.3 mph - N/A   Overcast
8:00 AM 26.6 °F - 24.8 °F 93% 30.32 in 8.0 mi Variable 2.3 mph - N/A   Overcast
9:00 AM 26.6 °F - 24.8 °F 93% 30.32 in 9.0 mi Calm Calm - N/A   Overcast
10:00 AM 28.4 °F - 24.8 °F 86% 30.32 in 9.0 mi Calm Calm - N/A   Overcast
10:48 AM 28.4 °F - 24.8 °F 86% 30.30 in 9.0 mi Variable 2.3 mph - N/A   Overcast
11:00 AM 28.4 °F - 24.8 °F 86% 30.30 in 9.0 mi Calm Calm - N/A   Overcast
11:06 AM 28.4 °F - 24.8 °F 86% 30.30 in 9.0 mi Variable 2.3 mph - N/A   Mostly Cloudy
11:12 AM 30.2 °F - 24.8 °F 80% 30.30 in 9.0 mi Variable 2.3 mph - N/A   Mostly Cloudy
11:28 AM 30.2 °F 26.7 °F 24.8 °F 80% 30.29 in 9.0 mi NE 3.5 mph - N/A   Mostly Cloudy
12:00 PM 30.2 °F 26.7 °F 26.6 °F 86% 30.28 in 9.0 mi Variable 3.5 mph - N/A   Clear
1:00 PM 30.2 °F - 26.6 °F 86% 30.25 in 9.0 mi Calm Calm - N/A   Partly Cloudy
2:00 PM 32.0 °F - 26.6 °F 80% 30.21 in 9.0 mi Variable 2.3 mph - N/A   Mostly Cloudy
3:00 PM 33.8 °F 30.8 °F 26.6 °F 75% 30.18 in 9.0 mi NW 3.5 mph - N/A   Overcast
4:00 PM 33.8 °F - 26.6 °F 75% 30.17 in 9.0 mi Variable 2.3 mph - N/A   Overcast
5:00 PM 33.8 °F - 26.6 °F 75% 30.16 in 9.0 mi WNW 2.3 mph - N/A   Overcast
5:09 PM 33.8 °F - 26.6 °F 75% 30.15 in 9.0 mi Variable 2.3 mph - N/A Rain Light Rain
5:35 PM 33.8 °F 30.8 °F 28.4 °F 81% 30.15 in 5.0 mi NW 3.5 mph - N/A Rain Light Rain
5:38 PM 32.0 °F - 30.2 °F 93% 30.15 in 4.0 mi NNW 2.3 mph - N/A   Overcast
5:43 PM 32.0 °F 27.5 °F 30.2 °F 93% 30.15 in 2.5 mi NW 4.6 mph - N/A   Overcast
5:49 PM 32.0 °F 27.5 °F 30.2 °F 93% 30.15 in 2.0 mi NNW 4.6 mph - N/A Snow Light Snow
5:54 PM 32.0 °F 27.5 °F 30.2 °F 93% 30.15 in 2.0 mi NW 4.6 mph - N/A Snow Light Snow
6:00 PM 32.0 °F 28.7 °F 30.2 °F 93% 30.15 in 2.2 mi NW 3.5 mph - N/A Snow Light Snow
6:15 PM 32.0 °F 28.7 °F 30.2 °F 93% 30.15 in 3.0 mi NW 3.5 mph - N/A Snow Light Snow
6:24 PM 32.0 °F 28.7 °F 30.2 °F 93% 30.14 in 2.2 mi NW 3.5 mph - N/A Snow Light Snow
6:34 PM 30.2 °F 26.7 °F 30.2 °F 100% 30.14 in 1.2 mi NNW 3.5 mph - N/A Snow Light Snow
7:00 PM 30.2 °F - 30.2 °F 100% 30.14 in 1.2 mi NNW 2.3 mph - N/A Snow Light Snow
7:53 PM 30.2 °F 24.3 °F 30.2 °F 100% 30.13 in 2.0 mi NW 5.8 mph - N/A Snow Light Snow
8:00 PM 30.2 °F 24.3 °F 30.2 °F 100% 30.13 in 2.5 mi NW 5.8 mph - N/A Snow Light Snow
8:01 PM 30.2 °F 24.3 °F 30.2 °F 100% 30.13 in 2.5 mi NW 5.8 mph - N/A Snow Light Snow
8:06 PM 30.2 °F 23.4 °F 30.2 °F 100% 30.12 in 2.5 mi NW 6.9 mph - N/A Snow Light Snow
8:24 PM 30.2 °F 24.3 °F 30.2 °F 100% 30.12 in 1.8 mi NNW 5.8 mph - N/A Snow Light Snow
8:43 PM 30.2 °F 23.4 °F 30.2 °F 100% 30.12 in 1.8 mi NW 6.9 mph - N/A Snow Light Snow
8:47 PM 30.2 °F 24.3 °F 30.2 °F 100% 30.12 in 2.2 mi NW 5.8 mph - N/A Snow Light Snow
8:53 PM 30.2 °F 23.4 °F 30.2 °F 100% 30.11 in 2.5 mi NW 6.9 mph - N/A Snow Light Snow
9:00 PM 30.2 °F 23.4 °F 30.2 °F 100% 30.11 in 2.5 mi NW 6.9 mph - N/A Snow Light Snow
9:08 PM 30.2 °F 23.4 °F 30.2 °F 100% 30.11 in 2.0 mi NW 6.9 mph - N/A Snow Light Snow
9:10 PM 30.2 °F 23.4 °F 30.2 °F 100% 30.11 in 2.0 mi NW 6.9 mph - N/A Snow Light Snow
9:39 PM 30.2 °F 24.3 °F 30.2 °F 100% 30.10 in 3.0 mi NW 5.8 mph - N/A Snow Light Snow
9:45 PM 30.2 °F 24.3 °F 30.2 °F 100% 30.10 in 6.0 mi NW 5.8 mph - N/A Snow Light Snow
10:00 PM 30.2 °F 24.3 °F 30.2 °F 100% 30.10 in 7.0 mi NW 5.8 mph - N/A Snow Light Snow
10:03 PM 30.2 °F 25.4 °F 30.2 °F 100% 30.10 in 6.0 mi NW 4.6 mph - N/A Snow Light Snow
10:04 PM 30.2 °F 24.3 °F 30.2 °F 100% 30.10 in 5.0 mi NW 5.8 mph - N/A Snow Light Snow
10:16 PM 30.2 °F 25.4 °F 30.2 °F 100% 30.10 in 3.0 mi NNW 4.6 mph - N/A Snow Light Snow
10:35 PM 30.2 °F 25.4 °F 30.2 °F 100% 30.09 in 4.0 mi NW 4.6 mph - N/A Snow Light Snow
10:46 PM 30.2 °F 25.4 °F 30.2 °F 100% 30.09 in 3.0 mi NNW 4.6 mph - N/A Snow Light Snow
11:00 PM 30.2 °F 26.7 °F 30.2 °F 100% 30.09 in 3.0 mi NNW 3.5 mph - N/A Snow Light Snow
11:03 PM 30.2 °F 26.7 °F 30.2 °F 100% 30.09 in 4.0 mi NNW 3.5 mph - N/A Snow Light Snow
11:20 PM 30.2 °F - 30.2 °F 100% 30.09 in 6.0 mi NNW 2.3 mph - N/A Snow Light Snow